Price, UT

8:35 AM MST on December 16, 2017 (GMT -0700)
Carbon County

Weather History for KPUC - July, 2013

Change the Weather History Date:

Saturday, July 13, 2013

  Actual Average Record
Temperature  
Mean Temperature 74 °F -  
Max Temperature 87 °F 87 °F 100 °F (2002)
Min Temperature 62 °F 57 °F 42 °F (1992)
Cooling Degree Days 9    
Growing Degree Days 24 (Base 50)    
Moisture  
Dew Point 53 °F    
Average Humidity 53    
Maximum Humidity 87    
Minimum Humidity 25    
Precipitation  
Precipitation 0.06 in - - ()
Sea Level Pressure  
Sea Level Pressure 30.01 in    
Wind  
Wind Speed 7 mph (North)    
Max Wind Speed 24 mph    
Max Gust Speed 38 mph    
Visibility 10 miles    
Events Rain , Thunderstorm    
Averages and records for this station are not official NWS values.
T = Trace of Precipitation, MM = Missing Value Source: NWS Daily Summary

Daily Weather History Graph

Daily Weather History Graph

Search for Another Location

Airport or City:

Trip Planner

Search our weather history database for the weather conditions in past years. The results will help you decide how hot, cold, wet, or windy it might be!

Date:

Astronomy

Jul. 13, 2013 Rise Set
Actual Time 6:06 AM MDT 8:50 PM MDT
Civil Twilight 5:34 AM MDT 9:22 PM MDT
Nautical Twilight 4:55 AM MDT 10:01 PM MDT
Astronomical Twilight 4:10 AM MDT 10:46 PM MDT
Moon 11:25 AM MDT (7/13) 11:34 PM MDT (7/13)
Length of Visible Light 15h 47m
Length of Day
14h 43m
Waxing Crescent, 26% of the Moon is Illuminated
Jul 13
Waxing Crescent
Jul 15
First Quarter
Jul 22
Full
Jul 29
Last Quarter
Aug 6
New

Hourly Weather History & Observations

Time (MDT) Temp. Heat Index Dew Point Humidity Pressure Visibility Wind Dir Wind Speed Gust Speed Precip Events Conditions
12:53 AM 64.0 °F - 55.0 °F 73% 29.90 in 10.0 mi NE 8.1 mph - N/A   Clear
1:53 AM 63.0 °F - 55.0 °F 75% 29.90 in 10.0 mi WNW 4.6 mph - N/A   Clear
2:53 AM 63.0 °F - 55.9 °F 78% 29.90 in 10.0 mi ENE 3.5 mph - N/A   Overcast
3:53 AM 64.0 °F - 55.9 °F 75% 29.89 in 10.0 mi Calm Calm - N/A   Overcast
4:53 AM 63.0 °F - 57.0 °F 81% 29.94 in 10.0 mi East 8.1 mph - 0.00 in Rain Light Rain
5:53 AM 62.1 °F - 57.9 °F 86% 30.01 in 7.0 mi Calm Calm - 0.03 in Rain Rain
6:53 AM 62.1 °F - 57.9 °F 86% 30.02 in 10.0 mi North 6.9 mph - 0.03 in   Overcast
7:53 AM 64.0 °F - 60.1 °F 87% 30.02 in 10.0 mi Calm Calm - N/A   Scattered Clouds
8:53 AM 69.1 °F - 60.1 °F 73% 30.02 in 10.0 mi Calm Calm - N/A   Scattered Clouds
9:53 AM 72.0 °F - 57.9 °F 61% 30.01 in 10.0 mi SE 5.8 mph - N/A   Clear
10:53 AM 73.9 °F - 57.9 °F 57% 30.00 in 10.0 mi SSE 8.1 mph - N/A   Clear
11:53 AM 77.0 °F - 57.0 °F 50% 29.98 in 10.0 mi Calm Calm - N/A   Clear
12:04 PM 78.8 °F - 55.4 °F 44% 30.20 in 10.0 mi ESE 8.1 mph - N/A Thunderstorm Clear
12:16 PM 78.8 °F - 55.4 °F 44% 30.21 in 10.0 mi Calm Calm - N/A Thunderstorm Clear
12:53 PM 72.0 °F - 54.0 °F 53% 30.01 in 10.0 mi NW 24.2 mph 38.0 mph N/A Thunderstorm Thunderstorm
1:01 PM 68.0 °F - 53.6 °F 60% 30.21 in 10.0 mi NNW 18.4 mph 31.1 mph N/A Thunderstorm Thunderstorm
1:14 PM 69.8 °F - 53.6 °F 56% 30.21 in 10.0 mi North 18.4 mph - N/A   Mostly Cloudy
1:24 PM 71.6 °F - 55.4 °F 57% 30.21 in 10.0 mi North 13.8 mph - 0.00 in Rain , Thunderstorm Light Rain
1:39 PM 78.8 °F - 53.6 °F 42% 30.20 in 10.0 mi North 11.5 mph - 0.00 in   Mostly Cloudy
1:53 PM 75.9 °F - 52.0 °F 43% 29.97 in 10.0 mi North 6.9 mph - 0.00 in   Scattered Clouds
2:53 PM 82.9 °F 81.8 °F 53.1 °F 36% 29.92 in 10.0 mi NNW 9.2 mph - 0.00 in   Clear
3:53 PM 84.0 °F - 48.0 °F 28% 29.88 in 10.0 mi Variable 3.5 mph - N/A   Scattered Clouds
4:53 PM 84.0 °F - 46.9 °F 27% 29.86 in 10.0 mi SW 3.5 mph - N/A   Clear
5:53 PM 86.0 °F - 46.0 °F 25% 29.84 in 10.0 mi South 5.8 mph - N/A   Clear
6:30 PM 82.4 °F - 48.2 °F 30% 30.12 in 10.0 mi NNW 15.0 mph - N/A   Clear
6:53 PM 84.9 °F - 48.9 °F 29% 29.85 in 10.0 mi NW 9.2 mph 17.3 mph N/A   Clear
7:53 PM 82.9 °F - 46.9 °F 28% 29.85 in 10.0 mi NNW 6.9 mph - N/A   Clear
8:37 PM 80.6 °F - 48.2 °F 32% 30.13 in 10.0 mi North 9.2 mph - N/A Thunderstorm Clear
8:53 PM 80.1 °F - 48.9 °F 34% 29.87 in 10.0 mi North 9.2 mph - N/A Thunderstorm Mostly Cloudy
9:41 PM 73.4 °F - 51.8 °F 47% 30.19 in 10.0 mi SE 9.2 mph - N/A   Scattered Clouds
9:53 PM 72.0 °F - 53.1 °F 51% 29.95 in 10.0 mi North 6.9 mph - N/A   Partly Cloudy
10:53 PM 70.0 °F - 51.1 °F 51% 29.97 in 10.0 mi ENE 10.4 mph - N/A   Clear
11:53 PM 66.9 °F - 51.1 °F 57% 29.96 in 10.0 mi West 5.8 mph - N/A   Clear